Valparaiso, IN

7:42 PM CDT on March 30, 2017 (GMT -0500)
Porter County Municipal

Weather History for KVPZ - December, 2012

Change the Weather History Date:

Saturday, December 1, 2012

  Actual Average Record
Temperature  
Mean Temperature 44 °F 33 °F  
Max Temperature 60 °F 54 °F 60 °F (2012)
Min Temperature 28 °F 26 °F 12 °F (2002)
Degree Days  
Heating Degree Days 21 32  
Month to date heating degree days 21 32  
Since 1 July heating degree days 1325 1290  
Cooling Degree Days 0 0  
Month to date cooling degree days 0 0  
Year to date cooling degree days 1054 713  
Moisture  
Dew Point 41 °F    
Average Humidity 78    
Maximum Humidity 93    
Minimum Humidity 60    
Precipitation  
Precipitation 0.00 in 0.09 in 0.48 in (2006)
Month to date precipitation 0.00 0.09  
Year to date precipitation 24.19 35.42  
Sea Level Pressure  
Sea Level Pressure 30.07 in    
Wind  
Wind Speed 10 mph (SSE)    
Max Wind Speed 21 mph    
Max Gust Speed 28 mph    
Visibility 7 miles    
Events      
T = Trace of Precipitation, MM = Missing Value Source: NWS Daily Summary

Daily Weather History Graph

Daily Weather History Graph

Search for Another Location

Airport or City:

Trip Planner

Search our weather history database for the weather conditions in past years. The results will help you decide how hot, cold, wet, or windy it might be!

Date:

Astronomy

Dec. 01, 2012 Rise Set
Actual Time 6:55 AM CST 4:19 PM CST
Civil Twilight 6:24 AM CST 4:49 PM CST
Nautical Twilight 5:50 AM CST 5:24 PM CST
Astronomical Twilight 5:16 AM CST 5:57 PM CST
Moon 7:09 PM CST (12/1) 9:07 AM CST (12/1)
Length of Visible Light 10h 25m
Length of Day
9h 23m
Waning Gibbous, 91% of the Moon is Illuminated
Dec 1
Waning Gibbous
Dec 6
Last Quarter
Dec 13
New
Dec 19
First Quarter
Dec 28
Full

Hourly Weather History & Observations

Time (CST) Temp. Windchill Dew Point Humidity Pressure Visibility Wind Dir Wind Speed Gust Speed Precip Events Conditions
12:53 AM 33.1 °F 28.7 °F 28.9 °F 85% 30.16 in 8.0 mi ENE 4.6 mph - N/A   Clear
1:53 AM 32.0 °F 26.4 °F 28.9 °F 88% 30.15 in 7.0 mi East 5.8 mph - N/A   Clear
2:53 AM 32.0 °F 28.7 °F 28.9 °F 88% 30.16 in 6.0 mi ENE 3.5 mph - N/A   Clear
3:53 AM 32.0 °F 28.7 °F 30.0 °F 92% 30.17 in 6.0 mi East 3.5 mph - N/A   Clear
5:53 AM 35.1 °F 30.1 °F 33.1 °F 92% 30.15 in 5.0 mi SE 5.8 mph - N/A   Clear
6:53 AM 35.1 °F 30.1 °F 33.1 °F 92% 30.16 in 3.0 mi SE 5.8 mph - N/A   Clear
7:13 AM 33.8 °F 29.6 °F 30.2 °F 87% 30.14 in 2.0 mi ESE 4.6 mph - N/A   Clear
7:42 AM 35.6 °F 29.9 °F 33.8 °F 93% 30.14 in 3.0 mi SE 6.9 mph - N/A   Clear
7:53 AM 37.0 °F 31.0 °F 35.1 °F 93% 30.16 in 3.0 mi SE 8.1 mph - N/A   Clear
8:53 AM 43.0 °F 37.7 °F 37.9 °F 82% 30.16 in 4.0 mi SSE 9.2 mph - N/A   Haze
9:53 AM 48.0 °F - 42.1 °F 80% 30.14 in 5.0 mi South 11.5 mph - N/A   Haze
11:53 AM 55.0 °F - 48.0 °F 77% 30.06 in 6.0 mi South 8.1 mph - N/A   Haze
12:30 PM 55.4 °F - 48.2 °F 77% 30.05 in 6.0 mi South 11.5 mph 20.7 mph N/A   Haze
1:53 PM 59.0 °F - 48.9 °F 69% 30.03 in 8.0 mi South 12.7 mph 18.4 mph N/A   Overcast
2:26 PM 60.8 °F - 48.2 °F 63% 30.02 in 9.0 mi South 9.2 mph 19.6 mph N/A   Overcast
2:53 PM 60.1 °F - 50.0 °F 69% 30.02 in 9.0 mi South 10.4 mph 19.6 mph N/A   Scattered Clouds
3:53 PM 59.0 °F - 50.0 °F 72% 30.01 in 9.0 mi South 8.1 mph - N/A   Clear
5:53 PM 57.9 °F - 48.9 °F 72% 30.00 in 10.0 mi South 10.4 mph - N/A   Scattered Clouds
6:53 PM 57.0 °F - 48.9 °F 74% 29.99 in 10.0 mi South 10.4 mph - N/A   Mostly Cloudy
7:53 PM 57.0 °F - 48.0 °F 72% 29.98 in 10.0 mi South 13.8 mph 20.7 mph N/A   Mostly Cloudy
8:53 PM 57.0 °F - 48.0 °F 72% 29.99 in 10.0 mi SSW 11.5 mph - N/A   Mostly Cloudy
9:53 PM 57.9 °F - 46.9 °F 67% 29.98 in 10.0 mi SSW 17.3 mph 24.2 mph N/A   Overcast
10:53 PM 60.1 °F - 46.9 °F 62% 29.97 in 10.0 mi SSW 17.3 mph - N/A   Overcast
11:53 PM 60.1 °F - 46.0 °F 60% 29.96 in 10.0 mi SSW 15.0 mph 24.2 mph N/A   Overcast